Theta_e
346 347 346 347 349 348 349 349 351 352 350 351 351 350 351 353 353 355 357 357 355 358 358 357 358 357 356 356 355 356 356 355 354 355 356 356 356 357 356 356 357 356 354 353 353 357 357 356 354 349 347 348 346 344 344 342 339 336 337 340 341 340 342 344 342 341 342 343 344 344 344 343 342 342 342 342 342 342 341 342 344 344 343 342 344
347 348 346 346 349 348 349 349 350 352 351 351 352 350 351 353 353 355 357 357 356 357 358 357 358 358 356 357 357 356 357 357 355 354 356 358 357 357 357 357 358 358 356 352 353 357 356 353 352 349 348 348 344 344 342 337 336 338 341 343 343 341 342 343 339 337 341 343 343 345 347 344 342 342 343 342 341 340 340 340 342 342 340 340 343
348 348 347 346 348 348 348 349 350 351 352 352 352 351 352 354 353 355 357 358 358 356 358 358 358 358 357 358 359 357 357 358 357 356 356 358 358 357 358 358 359 358 357 355 356 358 355 353 350 347 347 346 344 344 341 337 339 341 341 342 342 342 343 343 340 335 337 341 345 350 352 350 350 346 341 340 339 339 338 337 338 338 338 340 341
350 348 348 346 347 348 348 349 349 350 353 353 353 352 353 354 353 355 357 358 358 357 357 358 358 359 358 359 359 359 358 358 359 358 358 359 358 359 358 358 359 358 358 358 358 357 355 352 349 346 347 347 345 342 339 340 341 340 342 343 341 343 343 342 342 336 332 339 348 352 350 351 356 350 341 339 337 337 336 335 335 335 337 338 338
350 349 349 348 347 348 349 349 349 350 352 354 354 353 354 355 353 354 356 357 358 358 357 358 359 359 359 359 359 359 360 359 360 360 359 359 358 359 359 359 359 358 358 359 359 357 354 351 349 347 347 347 344 339 336 340 342 339 341 341 340 343 343 342 342 337 332 337 344 348 350 354 354 347 345 343 336 335 335 333 332 331 332 334 333
350 350 348 348 346 347 349 349 350 350 352 354 355 354 354 355 355 354 356 357 358 358 358 359 360 359 359 360 359 359 360 360 360 360 359 359 358 359 360 360 359 358 359 360 358 356 353 351 350 348 348 346 342 336 337 341 342 341 340 340 341 342 342 342 342 339 338 340 340 341 345 348 347 346 351 350 340 334 333 332 332 329 329 332 332
349 350 348 348 346 348 350 350 350 351 352 354 356 356 355 355 356 355 355 357 358 359 359 359 360 359 358 359 359 359 359 359 359 358 358 358 357 357 359 359 359 358 360 360 358 355 352 351 350 349 347 346 342 337 338 340 339 340 341 341 343 342 341 343 343 340 341 340 340 340 339 339 340 343 349 351 348 343 336 332 332 330 329 332 333
347 349 348 348 347 348 350 351 351 352 352 354 356 357 357 356 357 357 356 356 357 359 359 359 359 359 359 359 359 358 357 357 357 357 357 357 356 356 357 358 358 359 359 358 357 354 352 351 349 349 347 347 345 336 334 338 338 340 342 341 343 341 340 342 340 340 341 338 338 339 339 339 339 338 340 345 349 351 347 339 333 330 329 331 333
347 347 348 348 346 347 350 352 351 352 354 354 355 358 358 357 358 359 358 357 357 359 359 359 359 360 359 358 358 358 357 356 355 355 356 357 356 356 356 357 357 358 358 357 356 354 351 350 349 348 346 347 344 334 333 340 341 342 343 342 341 338 338 341 340 339 340 339 339 338 337 338 337 336 337 338 342 347 351 346 337 331 330 330 330
348 347 348 348 346 347 351 352 352 353 354 355 355 357 359 359 358 360 361 359 358 358 359 359 359 359 359 358 358 358 358 358 356 355 356 357 357 355 355 356 358 358 358 356 355 353 350 349 348 346 345 346 340 333 338 343 343 342 342 341 339 337 338 340 341 340 339 338 337 337 338 338 339 339 338 337 338 339 345 344 336 334 335 331 329
349 348 349 349 346 347 351 353 353 353 355 355 355 357 359 360 359 360 362 361 360 359 359 358 358 359 359 358 358 359 359 360 359 357 357 357 356 355 355 357 358 358 357 356 354 352 350 350 348 345 345 345 337 334 341 344 341 340 340 340 340 339 339 339 340 341 338 335 335 335 337 338 338 339 337 336 336 337 343 343 336 334 336 332 330
350 349 350 350 350 349 351 354 353 354 355 356 356 356 359 361 360 360 361 362 361 360 359 358 359 359 359 359 359 359 359 361 360 359 358 358 356 356 357 357 357 357 356 355 353 352 351 349 346 344 344 343 337 334 341 343 339 338 340 342 342 342 340 339 340 340 337 335 335 335 335 336 336 337 337 336 337 336 338 340 336 335 337 335 332
350 351 350 351 353 351 351 354 353 354 355 357 356 357 359 361 361 361 361 362 362 361 360 359 359 360 360 360 359 359 360 361 361 360 359 358 357 356 356 356 357 357 356 354 353 352 350 346 345 345 342 341 338 335 340 344 339 336 340 343 343 342 342 341 340 339 338 337 337 337 337 337 336 337 336 336 337 336 335 336 336 336 337 336 335
350 351 351 352 354 352 351 353 354 354 355 357 357 357 358 360 362 361 361 362 362 362 361 359 359 360 360 360 360 361 361 361 360 360 360 359 357 356 356 356 356 357 356 355 353 351 348 345 345 345 343 341 338 335 340 345 342 338 340 342 342 341 342 343 341 339 340 339 338 339 339 338 337 338 337 336 336 337 336 337 337 337 337 336 335
351 351 353 354 354 352 351 353 355 354 355 356 357 357 359 360 361 362 362 362 362 363 363 361 360 360 361 361 361 362 362 361 360 360 360 359 357 356 356 356 356 356 355 354 353 350 348 346 345 345 345 343 340 338 340 342 342 341 341 342 341 339 341 343 341 339 340 339 338 338 338 338 338 338 338 336 335 336 337 336 337 339 341 340 338
353 352 355 357 355 352 351 353 355 355 355 356 358 359 360 360 361 362 362 362 363 363 363 363 361 361 361 361 361 362 362 361 361 360 360 359 357 357 356 356 356 356 355 354 353 350 348 346 345 344 345 344 341 342 342 340 342 342 341 342 341 340 342 342 340 339 340 341 339 338 338 338 338 338 337 337 336 337 336 335 336 337 341 344 343
354 355 356 358 357 353 352 353 354 356 356 357 357 359 360 361 362 363 363 363 363 363 363 363 363 362 362 362 362 362 363 361 361 360 360 360 358 357 358 357 357 356 355 354 352 350 348 346 345 343 343 343 342 344 344 341 341 341 341 341 339 340 342 341 340 339 339 341 341 340 340 339 338 338 338 338 337 337 336 336 337 336 337 342 345
353 355 356 358 359 356 353 353 355 356 356 356 358 358 360 362 362 363 364 365 364 364 364 363 363 364 363 363 363 363 363 362 361 360 360 360 359 358 359 359 358 357 356 353 352 350 348 346 346 344 342 343 343 344 345 343 341 340 340 341 340 340 341 341 341 340 339 340 341 340 340 340 339 338 338 338 337 337 337 336 337 337 337 339 340
352 353 355 356 357 356 353 353 354 356 356 357 357 358 360 362 364 364 364 365 365 364 364 364 364 364 364 364 363 363 363 361 361 361 361 361 360 360 360 360 358 357 355 352 351 350 348 346 347 346 342 342 343 343 344 345 343 341 340 340 340 340 341 341 341 340 339 340 341 340 340 339 340 339 338 338 337 337 337 337 337 338 338 338 337
349 350 353 355 355 355 353 353 355 356 357 358 358 358 359 362 364 365 365 366 366 365 365 364 364 364 365 364 363 363 362 362 361 362 361 361 361 360 360 360 359 357 355 352 350 349 349 347 347 347 344 341 343 344 344 344 344 343 340 340 340 339 340 341 342 341 340 340 341 340 339 339 339 339 339 339 339 339 338 338 338 339 339 339 338
349 347 351 354 353 353 353 353 354 356 357 358 358 358 358 361 363 366 366 366 367 367 365 365 364 365 365 364 364 363 362 362 362 362 362 361 361 361 360 360 359 357 356 352 350 349 348 348 347 347 345 342 342 344 345 344 343 343 341 339 339 339 339 340 342 341 340 340 340 340 339 339 339 339 339 339 339 339 339 339 339 339 339 340 340
349 347 349 352 353 352 352 353 354 355 357 357 357 358 358 360 362 364 366 367 367 367 366 365 365 365 365 364 364 363 362 362 362 362 362 361 362 361 360 360 359 357 356 353 351 349 348 348 347 347 346 343 342 344 345 345 343 342 342 340 339 340 340 340 342 341 341 340 339 339 339 339 339 339 339 339 339 339 339 339 339 339 339 339 339
348 347 347 352 354 351 352 354 353 354 357 356 356 357 357 359 361 363 366 367 367 368 367 366 365 364 365 364 364 363 362 362 362 362 362 361 361 361 361 360 360 358 357 354 351 350 349 348 348 347 346 344 343 344 345 345 343 342 342 342 340 341 341 341 341 341 341 340 339 340 339 339 339 339 339 339 339 339 339 339 339 339 339 339 339
349 348 349 352 353 354 356 357 354 353 355 356 356 357 356 358 359 361 365 366 367 368 367 367 365 365 365 364 364 364 362 362 363 362 362 362 361 362 361 361 360 359 357 355 352 351 350 349 348 347 347 345 344 344 345 345 344 342 343 343 342 341 341 341 340 340 340 339 339 340 339 338 338 338 339 339 338 339 338 338 338 339 339 338 338
351 350 353 354 354 357 360 361 356 352 354 356 356 357 357 357 358 360 363 365 366 368 368 368 367 365 365 364 364 364 363 363 362 362 362 362 361 361 360 361 361 359 358 356 353 352 351 350 348 347 346 346 345 345 345 345 344 343 343 343 343 342 341 341 341 340 338 338 338 339 339 338 338 339 339 339 339 339 338 338 338 338 338 338 338
355 353 354 358 359 360 362 362 356 352 353 355 356 357 357 356 357 359 360 363 365 367 368 368 368 366 365 365 364 364 364 363 363 362 362 361 361 360 360 360 360 360 359 357 355 353 352 350 349 347 346 345 345 346 346 345 345 344 343 343 342 342 342 341 341 340 339 338 338 339 339 338 339 339 339 339 339 339 339 339 338 338 338 338 338
356 354 356 362 365 364 364 363 357 353 353 354 356 357 358 357 357 357 358 362 364 367 368 368 368 367 366 365 364 364 365 364 363 363 362 361 361 360 360 360 360 360 359 358 355 353 352 351 350 348 346 345 345 346 346 345 345 344 343 343 342 341 341 341 341 341 340 338 338 338 338 339 339 339 340 340 340 340 339 339 339 339 339 339 339
354 354 358 365 366 365 366 366 362 355 354 355 356 357 357 357 357 357 357 360 363 366 368 369 370 368 366 366 365 364 365 364 364 364 363 362 361 360 360 360 360 360 359 358 356 354 353 352 350 349 347 345 344 346 346 345 344 344 343 342 341 341 341 341 340 341 340 339 339 339 339 339 340 340 340 340 339 340 340 339 339 339 339 339 339
354 355 359 366 365 363 367 369 366 359 355 356 356 357 358 358 358 357 357 359 363 366 368 370 370 369 367 366 365 364 365 365 365 364 363 362 362 360 360 360 360 360 360 358 356 355 354 352 351 350 348 346 345 345 346 344 340 342 343 341 340 341 341 340 340 340 340 339 339 340 340 340 340 340 340 340 339 340 339 339 339 338 339 339 339
358 357 358 363 363 363 365 370 371 363 357 358 358 357 359 359 359 359 357 358 362 365 368 370 370 370 367 366 365 365 365 365 365 365 364 363 363 361 360 361 361 360 359 359 357 355 354 353 352 350 348 347 345 345 346 343 335 337 342 341 341 342 342 340 340 340 340 340 339 340 340 341 341 341 341 340 339 339 339 338 338 338 338 339 339
372 370 365 363 363 368 370 371 373 366 358 359 360 360 360 360 360 360 359 359 362 365 367 368 369 370 368 366 366 365 365 365 365 365 364 364 363 362 361 361 361 361 359 359 358 357 355 353 352 351 349 348 346 345 346 344 335 333 338 340 340 342 342 340 341 341 340 339 339 340 341 341 341 341 340 339 339 338 337 337 337 337 338 338 338
379 378 374 369 370 378 380 374 371 366 360 359 361 361 362 361 362 361 361 360 361 364 366 366 368 370 369 367 366 365 365 365 365 365 365 365 364 363 362 361 362 361 360 359 358 357 356 354 352 351 349 347 346 345 345 345 338 331 334 339 341 342 342 341 341 340 339 339 340 340 341 341 340 340 339 338 338 337 336 336 335 336 336 336 336
376 376 374 370 370 378 383 377 369 365 363 360 361 362 362 362 362 362 361 361 360 362 364 364 366 368 369 369 367 367 366 365 365 366 365 365 365 364 362 362 362 362 361 360 359 358 357 355 352 351 349 347 347 345 344 345 341 331 332 339 341 341 342 342 341 341 339 340 341 341 341 340 339 339 339 338 337 336 335 336 336 336 335 335 335
364 370 372 370 368 371 376 373 368 366 365 363 361 362 362 362 361 361 360 360 359 360 362 362 364 367 369 369 368 368 367 366 366 366 366 366 365 364 363 362 362 363 362 361 360 358 356 355 352 351 349 347 346 344 343 344 342 336 335 340 343 341 342 342 342 341 341 341 341 340 338 338 339 340 339 338 337 335 334 335 335 336 337 336 336
356 361 367 369 369 369 371 371 368 367 367 365 363 363 362 362 361 360 359 358 357 358 360 361 363 367 369 369 369 368 367 367 367 367 367 367 365 365 364 363 363 363 362 361 359 357 355 353 352 350 349 347 345 344 343 342 342 340 338 340 342 342 342 342 342 341 341 341 340 338 336 337 340 340 339 338 336 335 334 334 334 336 337 338 338
362 364 369 371 368 365 365 366 367 367 367 367 365 364 363 363 362 361 360 358 356 357 360 361 363 366 369 369 370 369 369 369 368 368 368 367 366 365 364 363 363 363 362 361 359 356 354 352 350 349 348 347 345 344 343 342 343 340 335 334 339 342 341 341 341 341 341 341 338 336 336 338 339 339 338 336 333 332 332 334 336 338 338 339 339
362 365 366 365 362 361 360 360 363 367 367 366 366 366 365 364 364 362 361 359 357 358 361 362 363 367 369 371 371 371 371 370 369 369 368 367 367 366 364 364 364 362 362 361 358 356 354 351 349 348 347 346 345 344 344 343 343 339 329 323 331 340 341 341 341 339 338 338 336 335 337 337 336 337 337 333 330 332 334 335 338 340 340 339 339
350 359 364 364 362 361 360 360 363 365 366 366 366 366 366 365 365 364 363 361 361 361 363 364 366 369 371 372 372 371 371 370 369 368 367 367 366 366 364 364 363 362 361 360 358 355 352 350 349 348 346 346 346 344 344 344 343 339 329 320 325 337 341 340 339 337 335 336 336 334 334 334 336 337 333 327 328 334 338 339 340 340 339 339 339
336 338 351 362 366 365 361 361 365 366 366 367 367 366 367 366 365 365 364 363 364 366 367 367 369 371 373 373 372 371 370 369 368 367 366 366 366 365 365 364 363 362 361 359 358 355 351 349 347 347 347 347 346 345 345 344 342 340 333 325 328 337 341 339 338 337 336 336 333 328 327 331 336 335 328 324 326 332 337 339 340 340 339 338 337
349 337 334 344 357 368 370 367 367 368 367 366 367 367 367 366 365 365 364 364 366 369 370 371 372 373 373 372 371 370 369 368 368 366 366 365 365 365 365 364 363 362 360 358 357 354 351 349 347 347 347 346 345 346 345 343 343 340 334 330 333 338 339 337 338 338 336 334 329 322 323 331 336 333 327 323 323 326 333 338 339 339 338 337 335
366 358 346 336 340 357 370 371 369 369 368 366 368 367 366 366 366 364 364 365 369 372 373 373 373 373 372 371 370 369 368 367 366 366 364 364 364 363 364 364 363 362 360 358 355 353 352 350 348 347 347 346 346 346 343 343 343 337 331 332 336 338 337 336 338 337 335 330 323 320 326 335 335 329 325 324 323 327 333 337 338 338 338 336 334
369 365 361 356 350 356 366 372 371 370 368 368 368 367 366 366 365 364 365 368 372 374 374 372 372 371 369 369 368 367 367 365 364 364 363 362 361 361 362 363 362 362 359 356 354 352 351 350 348 348 348 347 346 345 344 344 339 331 330 334 337 337 336 336 335 335 332 326 321 324 332 336 331 326 328 330 332 335 338 338 338 338 336 334 331
369 368 363 363 364 363 366 369 370 370 370 369 369 368 367 367 366 365 368 372 374 374 373 371 370 369 367 367 366 365 364 362 362 361 360 359 358 359 360 361 361 360 358 355 352 351 349 348 347 347 347 346 346 345 345 341 334 330 333 336 336 337 337 334 331 330 327 325 328 332 334 331 327 328 334 337 337 337 337 337 336 335 333 331 329
364 364 358 357 361 362 360 361 364 366 367 369 370 369 367 367 368 369 372 375 374 372 370 369 367 366 365 364 363 362 362 361 360 359 358 357 357 358 359 360 359 357 355 352 350 348 346 344 344 344 344 345 344 344 342 338 333 331 332 333 334 337 335 331 328 327 326 330 336 337 333 330 332 335 338 337 336 335 334 333 333 332 330 329 328
357 356 354 355 360 361 356 354 358 361 362 365 368 369 368 368 372 373 374 373 371 369 367 365 363 363 363 361 360 360 359 359 358 357 357 357 357 358 359 359 357 355 352 350 348 346 345 343 341 341 342 342 342 342 340 337 333 330 328 330 334 335 332 329 328 330 333 336 338 336 335 336 337 337 336 335 334 334 332 331 330 329 329 328 326
353 352 352 352 355 357 356 355 358 360 361 361 362 366 370 372 373 373 372 370 368 366 364 362 361 361 360 358 358 358 358 358 357 357 358 358 358 358 357 355 355 353 351 349 347 346 344 342 340 340 340 341 340 340 339 338 334 330 329 333 335 333 330 330 332 334 337 337 336 336 337 338 337 336 335 334 334 332 330 329 329 328 328 327 325
351 351 351 350 352 357 359 357 357 358 360 360 361 364 369 372 372 371 369 367 365 363 362 360 359 358 357 358 357 357 357 358 357 357 357 356 357 356 355 354 353 352 351 349 346 345 344 342 341 341 341 340 339 338 338 338 335 332 332 334 334 331 328 330 333 335 336 335 335 336 336 336 335 335 334 333 331 328 326 326 327 326 326 325 324
348 349 349 348 350 354 355 354 354 356 358 360 360 360 360 363 366 366 365 364 363 361 360 358 357 357 357 357 356 356 355 354 354 354 354 353 354 354 353 353 352 351 350 348 346 344 343 342 342 342 340 339 338 337 337 336 334 334 335 334 332 328 326 327 331 334 335 334 334 334 334 334 334 333 332 330 327 325 325 325 326 325 324 324 324
344 345 346 347 347 349 351 351 350 351 354 356 356 355 353 356 360 361 361 360 360 359 358 357 356 356 355 354 352 352 352 351 350 349 349 349 350 352 352 351 351 351 350 348 346 344 342 341 342 342 340 339 338 336 336 336 336 336 336 333 329 327 327 329 331 334 335 333 332 332 332 333 332 331 329 328 326 325 326 326 326 325 325 325 325
344 344 345 346 347 349 349 348 346 347 348 350 351 351 352 354 356 358 358 357 357 357 356 355 356 355 352 349 348 347 348 348 348 347 345 344 345 347 349 349 349 349 349 348 347 345 343 342 342 341 340 340 339 338 338 337 337 335 333 330 328 328 329 332 334 335 334 332 331 332 331 331 331 330 329 328 327 326 326 326 326 326 326 326 325
343 345 345 345 345 346 345 343 342 343 344 346 349 350 350 352 354 355 356 355 355 355 354 354 353 351 348 346 344 343 344 345 344 344 344 341 340 341 343 344 345 346 346 347 346 346 345 343 342 341 340 339 339 338 338 337 337 335 332 330 330 331 332 334 334 333 331 331 332 332 332 332 331 330 330 329 329 328 326 326 326 326 326 325 324
Wind_Speed
16 20 23 25 30 32 30 31 31 33 37 35 36 34 31 33 36 36 36 36 34 31 30 29 27 25 24 23 23 21 20 21 19 15 16 17 17 18 18 16 15 13 13 13 11 11 10 9 10 9 8 8 7 6 5 3 2 3 4 3 2 2 4 2 2 1 5 7 3 1 1 1 2 2 3 4 6 5 7 9 8 9 10 10 9
15 16 19 23 28 30 30 31 31 31 35 36 36 35 31 31 34 36 37 37 36 34 32 31 29 28 27 25 24 23 22 21 21 19 16 15 16 16 16 15 15 14 13 13 12 12 12 11 11 10 10 11 9 6 4 2 3 5 4 2 2 2 3 2 3 2 4 5 3 1 2 1 1 1 2 3 7 7 10 10 10 12 11 10 11
15 15 16 21 26 29 29 29 32 31 32 35 36 36 33 31 33 36 37 37 37 35 34 33 30 29 28 26 25 23 23 22 20 19 17 15 16 16 15 15 14 14 14 14 13 13 14 14 12 10 10 10 8 6 4 4 4 5 4 2 2 1 1 1 3 4 4 3 3 3 0 1 1 3 3 2 6 11 12 11 11 11 10 10 12
16 17 15 18 24 28 28 28 31 31 30 33 36 37 34 33 34 35 36 36 36 36 34 33 30 28 27 25 24 21 21 21 19 18 18 16 17 17 16 15 14 13 14 16 16 14 14 15 14 12 10 9 8 7 6 5 4 5 5 3 1 1 1 3 3 5 5 4 3 1 0 1 1 3 5 7 10 13 12 9 8 7 8 10 10
16 18 16 16 19 24 28 30 31 31 31 33 36 39 37 36 36 35 35 34 35 36 34 32 28 27 25 22 22 20 18 21 21 19 20 19 18 19 17 15 15 14 14 17 17 16 15 14 14 13 11 9 8 8 8 7 5 5 5 3 2 2 3 6 4 3 6 7 5 2 1 1 1 3 4 6 10 11 9 7 6 5 7 9 9
16 18 18 16 18 23 28 31 31 31 33 35 37 40 38 37 36 36 35 33 34 35 34 33 30 28 27 25 25 23 21 24 25 23 22 22 20 20 19 17 17 15 14 17 18 17 16 14 15 15 11 9 8 8 9 8 6 5 5 5 4 2 3 5 4 3 7 7 5 5 5 3 2 2 2 2 5 8 9 8 5 5 9 11 11
15 17 18 17 18 21 25 30 33 32 34 36 36 37 37 36 36 37 37 34 33 35 35 34 32 30 30 29 28 27 25 25 27 26 23 22 21 21 21 20 19 17 16 16 18 18 17 16 16 14 11 11 9 9 10 9 7 6 7 8 6 5 3 4 5 4 5 5 5 7 7 6 4 3 2 1 1 2 4 6 5 6 10 11 11
14 15 18 18 18 20 25 31 35 35 35 35 34 35 37 37 36 37 38 36 34 34 35 35 34 33 32 30 28 29 28 26 26 26 23 22 20 21 24 23 20 19 19 17 18 18 18 18 16 13 14 14 10 9 11 9 7 7 9 9 6 5 6 4 6 5 6 6 6 7 6 5 4 3 2 2 2 0 1 1 5 8 10 11 14
15 15 17 18 19 23 30 33 35 36 36 37 37 36 37 38 37 35 36 37 35 34 35 36 36 34 33 31 29 28 29 27 25 24 23 22 22 22 23 24 23 22 21 20 20 19 18 20 18 14 15 14 9 10 12 9 8 10 10 8 6 6 7 5 5 6 8 8 6 6 6 4 1 1 1 1 2 1 2 1 2 8 8 8 13
15 16 16 18 22 27 31 34 34 35 37 39 39 37 37 38 37 36 36 37 37 36 36 37 36 35 33 32 30 29 28 27 25 24 24 23 24 24 24 26 25 23 22 22 21 20 19 21 20 16 16 13 10 12 14 11 11 11 8 7 7 7 8 6 5 6 7 7 6 6 5 2 1 1 2 2 2 2 1 1 4 3 4 5 11
14 16 15 18 25 29 30 33 34 34 36 37 37 37 37 38 38 37 36 37 38 38 38 38 37 36 35 34 33 31 29 28 26 26 26 25 24 24 26 28 28 25 24 24 22 21 21 22 21 19 17 14 12 14 15 13 14 12 10 9 9 8 8 8 6 5 5 5 6 6 5 3 2 3 3 2 2 1 1 1 4 4 2 4 7
14 15 15 15 19 23 26 30 33 34 34 36 37 37 37 38 39 38 36 36 37 38 39 39 38 37 36 36 35 34 31 29 29 29 29 27 25 25 29 30 28 26 26 25 23 23 24 24 21 20 19 16 15 16 15 14 14 14 13 12 12 11 9 10 9 7 5 6 7 5 4 4 3 3 4 4 3 1 1 1 2 3 2 0 1
14 14 15 14 14 17 20 26 31 32 33 36 37 37 37 38 39 39 37 37 37 38 39 39 39 38 37 37 36 35 33 31 31 31 31 30 28 28 31 31 29 28 27 25 25 25 27 25 22 20 19 18 18 17 16 15 14 15 16 15 15 14 11 11 11 10 8 7 6 4 4 4 3 4 5 3 2 1 1 1 1 1 1 2 3
14 14 14 15 15 15 19 25 30 32 33 36 36 37 36 37 39 39 38 39 38 38 38 39 39 39 38 38 37 36 34 33 32 32 32 32 31 30 30 31 32 31 29 27 28 28 27 25 23 21 19 18 20 19 18 18 14 14 18 18 16 14 13 13 12 12 11 9 7 5 5 4 3 4 4 3 3 3 2 2 1 0 1 3 3
13 14 14 16 17 17 20 25 30 33 35 35 36 37 36 36 39 39 39 40 39 38 38 39 39 39 38 38 38 36 35 34 34 33 33 34 33 32 31 31 32 31 29 29 31 30 28 26 24 22 20 19 20 20 19 19 16 14 18 19 16 14 14 14 13 13 12 10 10 7 6 6 4 4 4 3 3 5 5 3 1 0 1 2 2
13 14 14 16 17 17 21 26 29 33 35 35 36 37 37 37 39 40 40 40 40 40 39 39 39 39 39 39 38 37 35 35 35 34 33 34 35 34 33 33 32 30 29 30 32 30 29 29 26 23 22 21 21 21 20 20 18 16 19 20 17 15 16 15 14 15 14 11 10 9 8 8 6 5 5 6 6 6 6 6 4 3 2 1 2
13 14 14 15 16 17 21 26 29 32 34 36 38 39 39 39 39 40 40 40 41 41 40 40 39 39 39 40 39 37 37 36 36 34 33 34 35 35 34 34 33 32 31 31 31 31 31 31 28 25 24 23 23 23 22 21 21 19 20 20 18 17 17 16 15 15 15 13 11 10 10 10 9 8 7 7 7 7 8 8 7 6 5 4 1
14 14 14 15 16 17 21 26 30 34 36 38 39 40 40 39 40 40 40 40 42 42 41 40 39 39 39 40 39 38 38 37 36 35 33 33 35 35 34 33 34 33 33 32 31 31 33 32 28 26 26 25 24 25 24 23 23 23 22 21 18 18 18 18 17 15 15 15 13 12 13 12 12 11 11 10 10 10 10 10 10 10 9 8 6
14 14 13 13 15 17 21 26 30 34 37 37 38 38 38 39 40 42 42 43 43 41 40 39 39 39 39 41 41 39 38 38 36 35 34 34 35 35 34 34 34 34 34 34 32 32 33 33 30 27 27 27 26 27 26 25 25 25 24 23 21 20 19 19 19 17 15 15 14 13 13 14 13 12 12 12 12 11 11 12 11 11 12 12 12
14 15 14 15 17 18 24 28 29 32 34 35 36 37 37 38 39 41 42 42 41 40 39 38 39 40 39 40 41 39 38 38 37 36 35 35 35 35 35 34 34 35 35 36 34 34 34 33 32 30 29 29 29 29 29 28 27 26 25 25 23 23 21 19 20 19 17 16 16 15 14 15 14 13 13 12 12 11 12 12 12 13 14 14 14
16 16 15 16 17 18 25 30 30 31 32 34 36 36 36 37 38 40 40 40 40 40 40 39 40 40 39 40 40 40 39 38 37 37 37 35 35 36 36 35 35 35 36 37 37 36 35 34 33 32 31 31 31 31 31 30 29 27 26 25 24 24 23 20 20 20 20 18 18 17 16 16 15 15 15 14 13 13 13 13 13 14 15 15 15
17 16 15 15 15 16 21 26 28 30 32 35 36 35 36 36 37 38 39 40 40 40 40 40 40 40 40 41 40 40 39 38 37 37 37 36 35 36 36 36 36 36 36 38 39 38 37 36 35 35 34 33 33 33 32 31 31 29 28 26 25 25 25 23 22 21 20 18 18 19 19 18 17 16 15 14 14 15 14 15 16 16 17 17 16
17 17 15 14 14 14 17 22 26 29 32 34 35 35 36 36 36 37 38 39 39 39 40 40 40 40 41 40 39 39 39 38 38 38 37 37 36 36 36 37 38 37 36 38 40 40 39 37 37 37 36 35 35 34 33 33 33 32 29 28 27 27 27 26 25 24 22 20 19 19 19 18 17 15 15 15 15 16 15 15 17 17 18 17 17
17 16 14 13 13 13 14 17 20 25 29 33 35 36 36 36 36 37 37 38 38 38 39 40 40 40 39 39 39 39 39 39 39 38 38 38 37 37 37 38 38 38 37 38 39 40 40 39 39 38 37 36 36 35 35 34 33 31 30 29 28 27 28 28 28 27 25 24 23 20 18 17 17 16 16 16 16 17 17 17 17 18 18 17 17
15 14 13 12 13 13 13 14 17 22 28 32 34 35 35 36 37 37 36 37 38 38 38 39 40 39 38 38 39 40 40 40 40 39 38 38 38 38 38 38 38 38 38 38 39 40 41 41 40 40 39 38 37 36 35 33 31 31 30 30 29 29 28 28 29 28 26 25 24 22 20 18 17 17 18 18 18 18 17 17 17 18 18 18 17
14 14 13 13 14 15 15 15 17 23 27 29 32 33 34 36 37 37 36 36 38 38 38 39 39 39 38 39 40 40 41 41 41 40 39 39 39 39 39 39 39 39 39 40 41 42 42 42 42 41 40 39 37 36 34 31 30 31 31 31 31 30 29 28 28 29 27 25 24 23 21 19 19 19 20 20 19 19 18 18 18 19 19 18 18
14 15 14 13 14 15 17 16 17 23 26 28 31 33 34 35 37 38 37 36 37 38 38 39 39 39 39 40 41 42 42 41 41 41 41 41 40 39 39 40 40 39 39 41 42 42 43 42 41 40 40 39 37 35 33 32 31 33 32 32 32 32 31 29 28 29 28 26 25 24 22 20 20 20 20 20 20 20 19 19 19 19 19 18 18
15 15 14 13 13 14 16 14 15 20 25 27 30 34 35 36 37 38 37 37 37 38 39 38 39 40 40 42 43 42 42 41 42 42 41 40 40 40 40 40 40 39 39 41 42 42 42 41 40 39 39 38 37 34 34 35 36 36 35 34 34 33 32 31 30 29 28 26 25 23 21 20 20 20 20 21 21 21 21 21 21 20 19 19 19
15 15 14 14 13 14 14 13 14 17 22 25 28 32 34 35 37 38 38 38 38 39 39 38 39 40 41 43 43 42 41 41 41 41 41 41 41 40 40 40 40 40 39 39 40 41 40 39 38 38 37 37 36 35 36 39 39 38 37 36 36 35 33 32 30 28 27 26 25 23 21 21 20 20 21 22 22 23 23 24 23 22 21 21 21
14 14 14 14 15 15 14 13 13 15 20 23 26 29 32 34 35 37 38 39 38 38 39 38 39 40 41 42 42 41 41 41 41 41 42 42 41 40 39 39 40 40 39 38 38 39 39 38 37 37 37 37 36 35 38 41 40 39 39 37 35 34 33 31 29 27 27 26 25 23 21 20 19 20 21 22 22 23 24 25 25 23 22 22 21
10 10 11 12 12 13 13 13 14 17 21 24 26 30 33 34 35 36 38 40 39 39 39 39 39 40 40 40 41 41 41 41 42 42 42 41 40 39 38 37 39 40 39 37 37 37 38 38 37 37 37 37 35 35 39 42 41 39 39 37 34 33 32 31 29 28 27 27 25 23 21 18 18 19 21 23 23 23 23 23 24 24 23 22 21
11 11 12 13 13 13 13 14 15 18 23 27 29 30 31 33 36 38 40 40 39 39 40 41 40 39 39 40 40 40 40 41 41 41 40 40 38 37 36 36 37 39 38 37 36 37 38 37 36 37 37 36 35 35 38 41 42 40 38 35 33 32 31 30 30 29 28 26 24 22 20 18 17 18 19 19 18 17 17 18 20 22 23 24 24
14 14 15 16 15 14 14 15 16 19 25 32 34 32 32 36 39 40 39 39 39 39 40 41 40 39 41 41 40 40 40 40 40 39 38 37 36 36 36 36 36 37 37 36 36 36 36 36 37 37 36 35 34 34 36 39 40 40 38 34 31 31 31 29 28 28 27 25 23 21 18 17 17 17 15 13 10 9 12 14 16 18 21 23 23
15 16 16 15 14 13 14 17 21 26 32 36 36 36 38 41 41 39 38 39 39 38 39 40 40 40 41 41 39 40 39 38 38 37 35 35 35 35 35 33 33 35 36 36 35 34 35 36 37 36 36 35 33 34 35 36 38 40 38 32 27 27 29 28 27 27 26 25 23 21 18 17 18 17 15 14 13 11 12 14 16 17 20 22 23
12 13 15 15 15 14 13 15 22 28 31 32 33 36 38 37 36 36 37 39 39 37 36 38 39 39 40 40 39 38 37 36 36 35 34 34 34 34 33 31 30 33 35 34 33 33 34 35 35 35 34 33 32 33 33 35 37 36 31 27 26 26 26 27 27 27 26 25 22 20 19 17 15 15 15 14 13 13 13 15 17 21 24 25 25
10 11 12 13 14 15 16 19 24 28 28 28 31 34 33 32 34 36 36 37 37 35 34 36 37 38 38 38 38 36 35 34 34 33 33 32 32 32 31 29 27 28 31 32 32 33 34 33 33 32 31 30 30 31 31 32 34 32 28 27 30 29 27 27 27 26 25 23 21 20 19 16 15 15 13 11 11 12 12 14 18 23 26 26 26
9 10 13 16 19 21 23 25 27 27 27 29 32 33 31 29 31 33 33 33 33 32 32 34 35 36 37 37 37 36 34 33 33 32 31 31 31 31 30 28 26 26 29 31 30 31 32 32 31 30 29 28 28 28 28 30 34 37 35 33 33 31 28 27 26 25 23 20 19 19 18 18 18 17 14 13 14 16 16 16 19 23 24 25 24
8 9 12 16 21 24 26 28 27 27 30 32 32 32 31 28 29 31 30 30 29 29 31 33 34 35 36 36 37 36 35 33 33 32 30 29 29 30 30 29 27 27 29 31 30 29 29 30 30 30 30 30 29 29 30 33 39 43 40 36 34 31 27 24 23 23 23 20 18 17 18 20 19 17 15 16 17 18 18 18 20 22 22 22 22
6 7 9 15 23 27 28 27 25 25 30 32 32 32 30 26 28 30 29 27 26 28 31 33 34 35 36 36 37 36 34 33 32 31 30 29 29 30 30 30 29 28 29 30 30 29 27 27 28 29 30 31 30 30 32 36 42 42 36 32 32 32 28 24 22 21 20 19 20 21 23 24 22 20 20 19 17 17 17 18 20 21 20 20 20
7 11 12 15 24 26 22 21 22 27 33 34 32 31 28 27 28 27 26 26 27 28 30 32 33 34 35 35 35 35 34 33 32 31 31 31 30 29 29 29 27 25 25 27 28 28 26 24 24 26 28 30 31 31 33 37 40 38 32 30 32 32 29 26 22 19 18 19 22 26 27 26 23 23 23 20 18 17 17 18 21 22 20 20 18
7 12 16 15 18 20 19 21 25 30 34 36 34 29 25 26 26 24 24 26 27 28 31 32 33 34 35 35 35 35 35 34 34 33 32 31 30 28 27 27 25 23 23 24 25 24 23 22 23 25 27 29 30 30 32 35 35 31 29 32 33 31 27 24 22 21 23 25 26 27 28 27 24 23 22 21 20 19 19 20 22 21 19 18 16
13 19 21 16 11 12 17 25 31 34 34 34 32 27 24 23 22 22 24 26 29 32 34 34 34 34 35 35 35 35 35 33 33 33 31 29 28 27 26 27 26 24 23 24 24 24 23 23 23 24 26 27 26 26 29 32 31 28 30 34 32 27 25 25 25 26 27 27 26 26 27 27 24 22 21 19 18 18 18 19 20 19 18 17 15
12 16 19 17 11 6 2 5 16 24 28 29 26 21 19 20 19 20 25 29 32 34 35 35 34 34 34 35 34 34 33 32 32 32 31 30 28 26 26 26 26 24 24 25 25 25 25 24 23 23 24 25 25 26 26 28 29 28 31 33 29 25 26 27 27 27 26 25 24 25 26 24 21 20 18 15 14 13 13 15 16 16 15 14 14
9 9 14 16 12 11 16 19 18 12 3 14 24 24 19 18 19 24 29 32 33 35 35 34 34 33 33 33 32 32 31 31 31 31 29 28 27 24 24 26 26 26 25 25 25 25 26 25 23 23 23 24 26 28 27 28 30 31 31 30 28 27 27 28 26 24 24 24 24 24 23 21 18 16 14 12 11 10 10 12 13 13 13 13 13
11 10 12 14 13 12 15 18 21 20 16 9 8 17 18 17 22 31 35 34 34 34 34 33 33 32 32 32 30 29 28 28 29 28 26 26 25 24 24 26 27 26 25 24 24 24 25 25 24 23 24 25 27 28 29 30 32 30 27 27 29 28 27 25 23 22 22 22 22 21 20 17 15 14 12 11 10 10 11 13 13 13 14 13 13
13 13 11 12 14 14 13 11 12 11 5 4 2 5 12 19 28 34 36 35 35 34 32 31 31 31 31 31 29 26 26 25 25 24 23 22 23 22 22 23 24 24 23 24 24 23 23 23 23 23 25 26 27 30 31 32 32 28 25 27 30 28 24 22 22 23 22 21 20 18 16 14 13 11 10 10 10 12 14 14 14 13 12 11 11
16 16 12 11 11 9 8 8 9 11 13 14 12 9 12 22 31 36 38 38 36 34 31 30 30 30 30 30 27 26 25 25 23 22 21 20 21 22 22 21 22 22 22 22 23 22 22 22 22 23 25 27 28 30 32 32 31 28 26 29 30 26 23 23 24 24 23 20 18 16 14 12 11 9 10 12 13 13 13 12 11 9 8 8 8
17 19 16 11 9 7 6 7 8 10 13 18 19 13 11 17 24 31 37 38 33 31 31 29 29 29 28 27 27 27 27 26 24 24 22 20 20 21 21 20 21 21 21 22 21 22 23 23 23 24 24 24 26 28 30 30 29 28 29 31 28 24 23 24 26 26 23 19 17 15 14 13 11 10 12 12 12 10 10 8 7 6 6 6 7
14 17 17 12 10 9 9 9 11 12 12 16 19 16 13 15 18 22 30 33 31 30 30 28 28 28 27 27 28 29 29 29 27 25 22 19 17 18 19 18 18 19 21 22 22 22 23 24 25 25 24 22 23 27 29 29 28 29 30 30 28 25 24 24 25 24 21 18 16 16 15 13 11 12 13 13 11 10 9 8 8 8 8 9 9
12 13 14 14 14 14 14 13 16 17 15 13 16 14 11 15 20 23 27 31 31 29 28 27 26 26 26 28 29 29 29 29 27 25 23 20 17 16 15 15 15 16 18 19 20 20 22 23 24 26 26 24 24 27 29 29 28 28 29 29 25 22 21 21 20 20 18 15 15 15 13 12 12 13 14 15 15 14 14 14 13 11 12 13 12
13 14 13 13 14 16 18 16 17 16 10 6 11 17 16 18 22 24 28 31 30 28 25 23 24 25 26 27 27 27 27 27 26 25 24 22 19 16 14 13 14 14 14 15 16 17 18 20 22 24 26 25 25 26 27 27 27 27 27 25 21 18 18 18 16 15 15 14 13 12 12 11 12 14 17 19 19 19 19 19 16 14 13 14 13
Wind_Direction
186 190 185 176 174 177 177 176 173 170 174 176 176 182 184 178 175 177 178 180 181 181 182 183 185 188 186 187 190 191 193 198 200 198 198 202 208 210 211 213 211 206 200 197 197 190 187 189 182 176 176 172 171 172 174 204 221 159 128 94 78 73 66 42 299 328 26 12 352 236 162 34 38 149 172 152 160 149 114 111 115 119 105 89 103
179 189 187 177 174 176 175 175 175 172 174 178 178 181 185 179 174 175 177 179 181 182 183 185 188 188 187 189 192 193 194 198 204 201 198 205 211 209 209 209 205 205 203 196 192 185 183 188 187 182 184 184 180 189 205 192 147 137 126 97 83 65 67 38 342 49 59 17 15 116 155 166 6 282 267 196 173 146 111 111 118 115 103 95 116
176 184 189 181 174 175 175 174 177 176 175 178 179 181 184 181 175 173 176 179 181 183 185 187 190 191 189 190 191 194 196 199 204 203 201 210 213 210 209 205 201 204 204 194 188 189 189 189 188 181 183 189 183 180 175 136 128 142 132 111 128 93 54 41 8 44 70 48 69 92 153 261 357 352 350 49 139 142 124 117 121 115 109 112 118
176 180 187 183 176 175 176 176 178 178 176 177 179 181 183 184 180 176 177 180 182 185 187 187 190 192 192 193 192 194 199 200 203 204 205 209 208 207 206 200 198 200 198 191 186 192 195 188 184 179 183 189 180 173 167 151 142 137 129 130 138 22 46 120 76 35 58 78 93 133 264 54 39 342 352 37 90 127 129 115 117 117 123 125 116
177 179 183 183 179 176 176 178 179 179 179 178 180 182 183 185 185 181 180 181 184 186 188 186 186 189 191 192 192 194 198 198 202 204 205 206 201 200 200 198 198 199 197 189 185 193 194 184 180 179 182 185 182 181 174 168 163 145 149 174 160 56 76 121 121 44 73 85 87 111 73 74 220 322 350 38 79 111 124 110 109 113 126 125 113
177 178 182 183 181 177 176 178 179 181 183 182 183 184 185 185 185 184 182 183 185 186 187 185 184 186 186 186 188 190 193 195 200 201 199 201 199 198 197 197 199 200 197 187 184 193 189 179 182 184 187 187 179 173 172 173 175 177 179 174 164 148 94 111 124 95 92 86 76 94 89 110 171 20 33 35 68 105 123 122 118 112 125 126 119
177 177 182 184 180 177 177 179 180 183 185 185 184 184 185 185 185 187 186 185 186 187 188 186 186 187 187 188 188 190 193 194 199 201 199 199 198 200 199 198 200 197 194 187 186 191 184 180 186 190 193 190 179 173 175 175 178 183 178 170 177 188 162 105 99 106 108 89 89 107 98 93 96 69 105 164 48 104 135 141 152 138 134 141 141
178 178 182 185 183 178 179 181 183 184 184 183 183 184 185 186 187 189 189 189 188 188 189 188 188 189 189 190 191 194 196 196 198 200 199 198 197 200 200 200 199 193 191 188 187 190 183 181 187 190 192 190 191 190 177 170 177 179 173 176 187 193 186 137 91 104 128 115 107 115 107 96 92 78 100 118 109 134 276 167 169 161 145 150 158
180 180 182 185 185 182 181 183 183 183 182 183 184 185 186 187 187 189 190 191 191 190 190 191 191 190 190 192 193 197 200 198 199 198 198 199 197 200 199 197 194 188 189 188 188 192 186 182 185 188 190 190 199 192 174 168 179 178 176 189 198 186 187 164 109 117 136 133 129 124 116 115 119 130 152 185 133 149 269 337 128 164 160 150 159
183 184 182 183 187 185 181 182 182 182 183 184 185 185 185 186 187 189 191 192 192 192 192 192 193 192 191 193 195 198 199 200 198 196 198 199 197 201 200 194 188 185 188 189 191 194 188 184 185 187 190 193 199 182 172 179 190 190 195 205 200 184 184 173 137 138 150 144 140 141 141 135 79 143 171 219 198 162 208 13 45 121 166 149 157
183 186 185 182 185 184 178 180 182 183 183 184 184 184 184 186 187 189 192 193 193 194 193 193 193 194 193 194 196 198 198 198 196 195 197 198 198 200 196 189 184 184 187 189 193 193 188 186 188 190 193 197 196 182 179 194 200 200 201 193 190 188 188 183 164 159 169 156 144 149 165 162 127 117 113 110 157 135 86 76 17 26 106 142 154
181 184 185 179 180 180 177 179 182 181 181 182 183 184 184 185 187 189 192 193 194 194 194 194 193 194 195 196 198 199 198 196 195 196 197 197 198 193 185 182 182 184 187 188 192 192 188 188 190 193 195 196 196 190 192 203 202 199 195 187 190 197 195 190 186 185 183 168 160 167 184 184 180 159 137 109 115 119 97 153 7 16 44 88 214
183 181 184 181 177 178 177 178 181 181 181 182 183 184 184 185 186 188 191 193 194 195 196 195 194 195 195 197 199 200 200 196 195 196 196 197 196 186 179 180 181 183 186 188 191 190 187 190 194 196 197 196 198 196 195 198 198 198 196 192 196 202 200 196 193 187 183 183 180 187 202 199 207 202 187 166 144 157 255 223 107 81 34 322 306
185 181 182 182 180 179 178 177 180 183 183 182 183 184 184 185 186 188 191 194 195 196 196 196 196 196 196 198 200 200 200 198 197 197 196 196 195 188 182 184 185 186 189 190 189 189 189 193 197 198 199 201 201 200 196 193 196 199 198 199 202 203 201 204 205 191 186 201 206 203 204 194 186 199 203 196 187 197 209 195 167 69 311 297 293
185 183 181 183 182 180 178 178 180 184 184 182 183 184 184 185 187 189 191 194 196 196 197 198 198 197 198 199 201 200 200 199 199 199 197 196 196 193 189 188 190 191 192 192 190 191 194 196 197 197 200 204 203 203 201 198 200 202 199 200 202 199 198 206 211 198 191 204 215 221 220 207 191 191 208 242 239 226 216 209 205 97 334 312 316
182 183 181 182 183 180 178 180 181 183 183 183 183 183 184 186 187 190 192 194 196 197 198 198 198 199 199 200 201 201 200 199 200 200 199 198 197 195 194 194 195 194 194 193 194 196 196 196 197 198 200 204 203 204 207 203 201 200 197 198 201 198 200 208 210 202 196 201 216 228 227 219 212 208 230 250 248 233 227 232 232 191 174 275 322
180 181 181 180 182 182 181 180 181 183 184 185 185 185 185 186 187 189 192 194 196 198 199 199 199 199 200 201 202 201 200 200 200 200 200 199 197 196 197 197 198 197 196 195 195 197 197 196 198 200 201 204 203 204 207 205 202 199 195 198 202 201 205 214 215 209 202 200 209 219 222 226 225 223 228 231 229 228 225 231 239 233 209 190 197
180 181 182 179 181 184 182 181 182 184 185 186 187 186 185 186 187 188 191 194 197 199 199 199 199 199 200 201 201 201 201 200 200 200 199 198 197 197 197 197 199 199 197 196 196 197 197 197 200 202 203 204 204 204 206 206 205 204 201 200 202 203 210 218 218 213 205 202 209 217 220 225 228 228 230 230 235 240 238 237 241 242 234 220 210
182 185 185 181 182 185 184 184 183 184 186 187 186 186 185 186 188 189 192 196 198 199 199 200 199 200 201 201 201 201 201 201 201 200 199 198 197 196 196 197 198 199 198 196 196 196 196 198 201 204 204 203 205 206 206 205 206 207 206 205 203 203 212 218 216 215 210 205 210 217 219 222 224 225 227 230 237 240 241 242 241 238 238 239 233
187 189 190 187 186 185 184 184 183 183 185 185 185 186 187 187 188 190 194 196 198 198 198 199 200 201 202 201 201 201 201 201 201 200 200 199 198 197 197 197 197 199 198 197 196 197 197 199 202 204 203 203 204 207 207 206 207 208 208 208 206 206 212 219 217 214 212 210 213 217 218 220 219 218 220 224 232 235 235 236 237 236 236 242 242
191 190 190 189 187 185 184 183 180 179 181 183 187 188 188 189 189 191 193 195 196 197 198 199 200 201 202 201 201 200 200 200 200 201 201 200 199 199 198 198 198 199 199 198 197 197 199 201 202 203 204 203 204 206 208 208 207 209 211 210 208 208 212 219 219 214 212 213 215 215 218 221 220 221 224 226 230 232 234 236 237 237 238 240 240
193 190 188 188 187 184 182 181 176 175 180 184 187 188 189 190 191 192 193 195 196 197 198 199 200 201 202 202 200 200 200 200 200 202 202 201 200 199 199 199 199 199 200 199 198 197 199 202 202 203 204 204 204 205 207 208 208 209 212 211 208 209 212 217 218 214 211 212 215 217 219 220 221 223 226 229 230 228 230 237 238 238 240 240 238
188 187 188 186 184 181 180 180 178 177 180 183 185 187 191 191 191 193 196 196 197 197 198 199 200 202 203 202 200 200 200 200 201 202 203 202 202 201 200 200 201 201 201 200 199 198 200 203 203 204 204 203 203 204 206 207 207 208 209 211 211 211 213 217 218 216 212 212 217 220 217 213 216 222 225 229 230 228 229 235 239 239 240 242 239
185 184 187 182 176 176 178 182 183 180 180 182 185 188 189 190 193 196 198 198 197 198 199 200 201 203 203 201 200 200 200 200 201 202 203 203 203 203 201 202 202 202 202 201 200 200 202 204 204 204 204 203 203 204 205 206 207 208 210 211 213 214 216 218 220 220 218 215 217 218 214 212 218 223 227 231 231 232 233 234 239 241 240 241 241
184 179 176 174 173 178 182 185 186 183 181 182 185 186 187 190 194 196 198 198 198 199 199 200 202 203 203 202 201 201 200 201 201 202 203 203 204 204 203 203 202 202 202 202 201 201 204 205 205 204 204 204 204 204 204 204 205 208 212 215 216 217 219 221 221 222 221 217 216 219 218 217 220 226 231 235 234 234 235 237 242 244 242 242 244
176 172 171 173 176 181 184 185 186 185 183 182 183 184 187 191 194 197 198 198 198 199 199 200 202 203 203 203 203 202 201 201 202 202 203 203 204 204 204 204 203 202 202 203 202 203 205 207 207 206 205 205 204 203 201 201 204 208 213 218 219 219 221 223 223 222 221 219 217 219 221 220 224 231 235 237 238 239 241 243 245 247 246 246 246
173 174 174 171 174 181 184 185 187 186 184 182 182 184 186 190 194 196 197 197 198 199 200 201 202 202 203 204 204 203 202 202 202 203 204 204 204 205 205 205 205 203 203 203 204 205 206 208 208 207 207 206 204 200 196 198 204 208 211 216 219 220 221 224 225 222 220 220 220 222 224 226 228 233 236 240 244 245 246 246 247 248 249 248 247
175 177 175 169 170 180 183 185 186 185 184 183 183 185 187 189 193 195 196 196 197 198 199 200 201 202 203 205 205 204 203 202 203 204 204 205 205 205 205 206 205 205 205 205 205 205 207 208 209 208 207 206 203 198 192 195 205 210 210 213 216 217 219 223 226 224 220 222 225 226 228 230 231 234 240 246 250 250 248 247 248 250 250 249 249
175 176 176 174 176 181 185 184 183 182 183 183 185 187 188 190 193 193 195 196 196 197 199 199 201 203 204 204 205 204 203 203 203 204 205 206 206 206 206 206 205 206 207 207 207 207 206 207 208 208 207 205 203 197 192 196 205 209 210 212 214 215 216 219 223 224 223 224 226 228 231 234 236 241 248 252 253 252 251 251 251 250 249 248 250
177 181 181 180 182 184 187 184 179 181 183 184 186 188 189 191 193 193 195 196 196 196 198 199 201 203 204 204 204 203 203 203 203 204 205 206 206 206 205 205 206 206 207 208 208 207 207 207 207 206 206 205 203 198 195 199 205 208 209 211 213 213 213 215 218 219 220 222 225 228 233 238 244 250 254 255 255 256 255 257 258 256 252 250 249
170 179 186 189 189 190 190 186 183 184 183 184 187 189 191 192 192 194 196 196 196 196 198 200 202 203 203 203 203 202 202 203 203 204 205 205 205 205 204 204 205 206 207 207 207 207 207 208 207 206 207 206 203 200 198 202 206 209 210 210 212 212 211 213 215 215 217 221 224 228 231 235 244 253 258 258 258 258 257 258 261 260 258 255 253
173 178 185 189 192 193 192 190 191 188 184 186 189 189 191 193 194 196 196 195 196 197 198 200 201 200 200 201 201 201 201 202 203 204 204 204 203 202 203 203 203 204 205 205 205 207 207 207 207 207 207 206 204 202 202 204 206 209 212 211 210 210 209 212 214 216 219 221 222 224 227 231 240 250 259 262 260 265 271 269 265 263 262 262 262
178 183 188 190 190 189 188 190 192 189 187 190 190 189 191 195 197 197 195 194 196 197 198 200 200 198 198 200 199 199 200 202 202 203 203 202 201 201 202 202 202 202 202 203 205 206 206 206 207 206 207 207 205 203 205 205 206 210 214 213 210 210 210 210 212 214 217 218 218 221 224 230 239 248 258 261 257 280 303 299 284 273 268 266 265
185 186 189 191 191 191 191 192 191 191 193 194 192 191 195 198 197 196 194 194 197 198 197 197 197 196 197 198 197 197 198 199 200 201 200 200 200 200 201 201 201 200 200 202 204 204 203 204 205 205 206 207 206 206 206 206 207 210 212 212 212 213 213 213 212 212 215 215 217 222 225 229 237 247 254 252 249 265 293 300 295 286 278 272 268
197 197 193 193 193 195 196 194 192 194 195 194 193 194 196 197 195 194 194 195 196 197 196 195 195 195 195 194 194 194 195 196 196 196 197 197 198 198 199 199 200 200 201 202 202 202 202 202 202 204 205 206 208 208 206 207 208 207 208 215 220 220 219 218 214 213 216 216 215 221 225 227 234 244 248 253 261 274 283 285 284 283 281 277 274
190 200 202 199 197 197 197 196 196 197 196 193 195 197 195 194 193 193 195 196 196 196 195 194 193 192 191 190 190 189 189 190 190 190 191 192 193 194 196 196 199 200 199 200 202 201 201 200 200 202 202 204 209 209 207 207 205 199 202 217 226 225 224 221 214 212 215 216 214 218 224 228 233 241 249 261 269 267 263 264 269 272 273 272 273
186 191 199 202 202 201 200 198 197 196 195 195 196 196 192 191 192 194 194 194 194 195 194 191 190 189 188 186 184 183 182 182 182 183 184 186 188 190 192 194 197 196 195 198 199 199 200 200 198 198 199 202 206 208 206 203 199 196 199 212 223 225 221 216 211 209 212 216 216 220 230 237 239 244 253 258 256 253 253 254 257 263 266 268 272
203 189 190 197 202 204 204 201 198 196 197 197 195 192 190 189 191 193 194 192 192 194 191 187 185 184 182 180 178 177 176 176 176 177 178 180 184 187 190 194 196 195 195 196 196 196 199 199 197 197 198 200 203 206 205 201 199 199 202 212 221 219 212 209 208 210 214 219 218 223 237 246 247 246 243 239 243 250 255 256 256 258 262 265 271
248 231 214 200 199 204 207 203 198 197 198 197 194 190 188 189 192 192 192 191 191 189 185 181 179 177 174 173 172 171 171 170 171 174 176 180 184 188 191 195 197 197 196 196 196 195 195 195 196 196 197 200 203 204 203 200 198 201 207 215 217 214 211 209 207 205 206 209 214 221 232 241 245 243 238 236 241 247 253 260 261 258 259 264 272
289 275 266 223 200 200 205 202 197 197 197 195 193 191 188 190 192 190 190 192 189 183 177 173 169 166 165 165 165 165 165 166 169 174 179 183 185 188 191 194 196 197 195 194 197 198 195 194 194 193 195 200 203 201 198 197 200 205 211 213 210 210 211 208 201 195 193 203 217 225 229 235 241 242 242 244 249 252 259 263 260 257 260 267 275
332 323 309 271 220 200 195 196 197 198 197 194 190 189 189 190 188 187 191 190 181 170 165 162 159 159 158 158 159 161 164 168 173 176 179 182 184 185 187 190 191 192 191 190 192 193 190 189 189 189 193 199 201 196 191 195 204 210 208 205 205 207 205 200 195 195 201 213 224 227 228 231 237 243 248 253 256 260 265 262 256 257 262 268 274
20 17 359 329 274 214 194 197 199 198 198 195 189 185 184 183 183 186 187 178 166 160 158 155 155 155 154 154 157 162 166 170 173 175 176 178 181 183 185 186 186 186 185 183 181 180 178 177 178 184 189 193 194 192 191 197 206 207 201 201 205 205 201 196 195 200 209 220 226 227 226 228 235 246 253 255 256 260 261 256 252 255 262 268 273
34 41 36 26 6 355 1 213 208 204 198 188 179 175 175 178 180 179 172 162 156 154 153 150 150 151 151 155 160 163 166 167 169 172 173 175 178 182 183 183 182 180 176 172 172 173 170 167 167 174 182 185 186 190 197 201 201 198 197 200 203 203 200 199 202 210 219 224 224 224 227 233 243 251 252 250 252 254 251 248 249 254 261 268 271
8 37 59 63 52 27 24 25 20 3 292 186 176 173 171 172 170 161 155 153 151 149 147 145 146 147 149 154 158 161 164 166 168 170 171 172 177 181 180 178 176 173 168 165 166 167 165 162 162 167 176 183 186 192 199 200 194 192 198 202 202 200 201 204 211 221 225 224 222 225 232 241 246 246 243 244 249 250 248 251 255 260 266 270 272
353 7 41 70 81 69 52 44 39 25 0 329 203 177 165 156 153 150 148 148 147 144 142 141 142 143 147 150 152 155 160 164 167 168 167 169 173 174 170 170 170 167 165 164 164 166 166 166 166 167 173 182 188 193 196 195 192 195 205 207 204 203 204 208 214 220 223 225 227 230 236 240 238 234 237 243 251 258 264 267 268 269 270 272 274
355 354 16 55 75 79 76 68 72 84 76 9 18 149 148 144 146 146 145 144 142 140 137 137 138 140 143 146 146 147 153 158 162 164 164 164 165 162 159 161 162 162 164 166 168 169 168 167 167 169 173 179 184 189 191 191 196 207 214 208 203 205 208 209 214 219 223 226 228 230 232 232 230 233 245 257 268 276 277 274 270 267 267 270 271
2 351 8 48 61 66 81 82 79 99 124 135 138 147 149 146 144 142 140 140 139 137 135 135 135 136 139 143 143 141 142 146 149 151 151 151 156 157 154 156 161 162 163 166 168 169 167 163 162 164 171 177 183 188 193 198 205 213 210 201 201 206 210 212 216 220 222 224 226 227 228 229 235 248 263 272 277 279 278 274 268 261 258 257 255
13 1 6 40 63 60 70 86 84 87 105 121 125 121 122 131 136 138 138 137 135 133 132 131 131 132 135 138 137 134 133 132 132 133 133 134 144 153 153 154 162 167 167 167 167 167 168 167 164 163 165 170 177 186 195 201 205 204 200 198 202 208 213 216 220 221 223 228 232 232 233 237 245 257 264 267 269 268 267 263 249 232 228 234 237
26 12 4 18 35 37 40 48 51 56 73 97 105 107 112 120 127 132 131 128 127 125 125 125 127 129 129 130 129 130 130 128 125 125 122 119 129 144 150 154 162 171 174 173 171 170 171 171 171 169 166 165 172 183 191 195 197 197 199 202 206 211 217 223 225 225 229 235 236 235 235 238 244 252 254 253 251 246 239 229 218 216 226 239 245
22 11 3 6 16 33 43 34 27 33 39 58 79 90 100 110 118 122 120 119 119 118 118 122 125 125 126 126 126 127 129 129 128 126 123 117 119 133 146 153 158 167 175 179 181 180 177 176 176 176 176 180 186 189 190 192 196 200 203 206 212 221 227 229 229 229 231 231 230 231 232 236 242 246 248 248 244 234 224 219 217 222 234 241 245
19 7 3 2 12 40 50 31 19 29 29 42 89 102 108 111 116 119 118 118 119 118 118 121 122 123 125 125 124 125 127 129 131 131 129 123 117 118 128 139 148 155 163 174 183 186 185 187 189 185 184 191 197 194 192 197 202 204 205 211 223 235 234 230 228 222 216 213 216 223 231 240 247 250 252 252 244 230 223 222 218 219 229 235 239